START_TIME,STEP,MOV.,M29,t_acc.,H22,t_acc.,H26,t_acc.,H30,t_acc.
1979-07-21 12:00:31.600 ,0,0,0.,24.0,0.,24.0,0.,24.0,0.,24.0
1979-07-21 12:00:55.600 ,1,1,0.,24.0,0.,24.0,0.,24.0,0.,24.0
1979-07-21 12:01:19.600 ,1,0,0.,24.0,0.,24.0,0.,24.0,0.,24.0
1979-07-21 12:01:43.600 ,2,1,0.,24.0,0.,24.0,0.,24.0,0.,24.0
1979-07-21 12:02:07.600 ,2,0,0.,24.0,0.,24.0,0.,24.0,0.,24.0
1979-07-21 12:02:31.600 ,3,1,0.,24.0,0.,24.0,0.,24.0,0.,24.0
1979-07-21 12:02:55.600 ,3,0,0.,24.0,0.,24.0,0.,24.0,0.,24.0
1979-07-21 12:03:19.600 ,4,1,0.,24.0,0.,24.0,0.,24.0,0.,24.0
1979-07-21 12:03:43.600 ,4,0,0.,24.0,0.,24.0,0.,24.0,0.,24.0
1979-07-21 12:04:07.600 ,5,1,0.,24.0,0.,24.0,0.,24.0,0.,24.0
1979-07-21 12:04:31.600 ,5,0,0.,24.0,0.,24.0,0.,24.0,0.,24.0
1979-07-21 12:04:55.600 ,6,1,0.,24.0,0.,24.0,0.,24.0,0.,24.0
1979-07-21 12:05:19.600 ,6,0,0.,24.0,0.,24.0,0.,24.0,0.,24.0
1979-07-21 12:05:43.600 ,7,1,0.,24.0,0.,24.0,0.,24.0,0.,24.0
1979-07-21 12:06:07.600 ,7,0,0.,24.0,0.,24.0,0.,24.0,0.,24.0
1979-07-21 12:06:31.600 ,7,1,0.,24.0,0.,24.0,0.,24.0,0.,24.0
1979-07-21 12:06:55.600 ,7,0,0.,24.0,0.,24.0,0.,24.0,0.,24.0
1979-07-21 12:07:19.600 ,6,1,0.,24.0,0.,24.0,0.,24.0,0.,24.0
1979-07-21 12:07:43.600 ,6,0,0.,24.0,0.,24.0,0.,24.0,0.,24.0
1979-07-21 12:08:07.600 ,5,1,0.,24.0,0.,24.0,0.,24.0,0.,24.0
1979-07-21 12:08:31.600 ,5,0,0.,24.0,0.,24.0,0.,24.0,0.,24.0
1979-07-21 12:08:55.600 ,4,1,1.,24.0,0.,24.0,0.,24.0,0.,24.0
1979-07-21 12:09:19.600 ,4,0,0.,24.0,0.,24.0,0.,24.0,0.,24.0
1979-07-21 12:09:43.600 ,3,1,0.,24.0,0.,24.0,0.,24.0,0.,24.0
1979-07-21 12:10:07.600 ,3,0,0.,24.0,0.,24.0,0.,24.0,0.,24.0
1979-07-21 12:10:31.600 ,2,1,0.,24.0,0.,24.0,0.,24.0,0.,24.0
1979-07-21 12:10:55.600 ,2,0,0.,24.0,0.,24.0,0.,24.0,0.,24.0
1979-07-21 12:11:19.600 ,1,1,0.,24.0,0.,24.0,0.,24.0,0.,24.0
1979-07-21 12:11:43.600 ,1,0,0.,24.0,0.,24.0,0.,24.0,0.,24.0
1979-07-21 12:12:07.600 ,0,1,0.,24.0,0.,24.0,0.,24.0,0.,24.0
1979-07-21 12:12:31.600 ,0,0,0.,24.0,0.,24.0,0.,24.0,0.,24.0
1979-07-21 12:12:55.600 ,0,1,0.,24.0,0.,24.0,0.,24.0,0.,24.0
1979-07-21 12:13:19.600 ,0,0,0.,24.0,0.,24.0,0.,24.0,0.,24.0
1979-07-21 12:13:43.600 ,1,1,0.,24.0,0.,24.0,0.,24.0,0.,24.0
1979-07-21 12:14:07.600 ,1,0,0.,24.0,0.,24.0,0.,24.0,0.,24.0
1979-07-21 12:14:31.600 ,2,1,0.,24.0,0.,24.0,0.,24.0,0.,24.0
1979-07-21 12:14:55.600 ,2,0,0.,24.0,0.,24.0,0.,24.0,0.,24.0
1979-07-21 12:15:19.600 ,3,1,0.,24.0,0.,24.0,0.,24.0,0.,24.0
1979-07-21 12:15:43.600 ,3,0,1.,24.0,0.,24.0,0.,24.0,0.,24.0
1979-07-21 12:16:07.600 ,4,1,0.,24.0,0.,24.0,0.,24.0,0.,24.0
1979-07-21 12:16:31.600 ,4,0,0.,24.0,0.,24.0,0.,24.0,0.,24.0
1979-07-21 12:16:55.600 ,5,1,0.,24.0,0.,24.0,0.,24.0,0.,24.0
1979-07-21 12:17:19.600 ,5,0,0.,24.0,0.,24.0,0.,24.0,0.,24.0
1979-07-21 12:17:43.600 ,6,1,0.,24.0,0.,24.0,0.,24.0,0.,24.0
1979-07-21 12:18:07.600 ,6,0,0.,24.0,0.,24.0,0.,24.0,0.,24.0
1979-07-21 12:18:31.600 ,7,0,0.,24.0,0.,24.0,0.,24.0,0.,24.0
1979-07-21 12:18:55.600 ,7,0,0.,24.0,0.,24.0,0.,24.0,0.,24.0
1979-07-21 12:19:19.600 ,5,1,0.,24.0,0.,24.0,0.,24.0,0.,24.0
1979-07-21 12:19:43.600 ,1,1,0.,24.0,0.,24.0,0.,24.0,0.,24.0
1979-07-21 12:20:07.600 ,2,1,0.,24.0,0.,24.0,0.,24.0,0.,24.0
1979-07-21 12:20:31.600 ,6,1,0.,24.0,0.,24.0,0.,24.0,0.,24.0
1979-07-21 12:20:55.600 ,5,1,0.,24.0,0.,24.0,0.,24.0,0.,24.0
1979-07-21 12:21:19.600 ,1,1,0.,24.0,0.,24.0,0.,24.0,0.,24.0
1979-07-21 12:21:43.600 ,2,1,0.,24.0,0.,24.0,0.,24.0,0.,24.0
1979-07-21 12:22:07.600 ,6,1,0.,24.0,0.,24.0,0.,24.0,0.,24.0
1979-07-21 12:22:31.600 ,5,1,0.,24.0,0.,24.0,0.,24.0,0.,24.0
1979-07-21 12:22:55.600 ,1,1,0.,24.0,0.,24.0,0.,24.0,0.,24.0
1979-07-21 12:23:19.600 ,2,1,0.,24.0,0.,24.0,0.,24.0,0.,24.0
1979-07-21 12:23:43.600 ,6,1,0.,24.0,0.,24.0,0.,24.0,0.,24.0
1979-07-21 12:24:07.600 ,5,1,0.,24.0,0.,24.0,0.,24.0,0.,24.0
1979-07-21 12:24:31.600 ,1,1,0.,24.0,0.,24.0,0.,24.0,0.,24.0
1979-07-21 12:24:55.600 ,2,1,0.,24.0,0.,24.0,0.,24.0,0.,24.0
1979-07-21 12:25:19.600 ,6,1,0.,24.0,0.,24.0,0.,24.0,0.,24.0
1979-07-21 12:25:43.600 ,5,1,0.,24.0,0.,24.0,0.,24.0,0.,24.0
1979-07-21 12:26:07.600 ,1,1,0.,24.0,0.,24.0,0.,24.0,0.,24.0
1979-07-21 12:26:31.600 ,2,1,0.,24.0,0.,24.0,0.,24.0,0.,24.0
1979-07-21 12:26:55.600 ,6,1,0.,24.0,0.,24.0,0.,24.0,0.,24.0
1979-07-21 12:27:19.600 ,5,1,0.,24.0,0.,24.0,0.,24.0,0.,24.0
1979-07-21 12:27:43.600 ,1,1,0.,24.0,0.,24.0,0.,24.0,0.,24.0
1979-07-21 12:28:07.600 ,2,1,0.,24.0,0.,24.0,0.,24.0,0.,24.0
1979-07-21 12:28:31.600 ,6,1,0.,24.0,0.,24.0,0.,24.0,0.,24.0
1979-07-21 12:28:55.600 ,5,1,0.,24.0,0.,24.0,0.,24.0,0.,24.0
1979-07-21 12:29:19.600 ,1,1,0.,24.0,0.,24.0,0.,24.0,0.,24.0
1979-07-21 12:29:43.600 ,0,0,0.,24.0,0.,24.0,0.,24.0,0.,24.0
1979-07-21 12:30:07.600 ,0,0,0.,24.0,0.,24.0,0.,24.0,0.,24.0
1979-07-21 12:30:31.600 ,5,1,0.,24.0,0.,24.0,0.,24.0,0.,24.0
1979-07-21 12:30:55.600 ,5,0,0.,24.0,0.,24.0,0.,24.0,0.,24.0
1979-07-21 12:31:19.600 ,4,1,0.,24.0,0.,24.0,0.,24.0,0.,24.0
1979-07-21 12:31:43.600 ,4,0,0.,24.0,0.,24.0,0.,24.0,0.,24.0
1979-07-21 12:32:07.600 ,3,1,0.,24.0,0.,24.0,0.,24.0,0.,24.0
1979-07-21 12:32:31.600 ,3,0,0.,24.0,0.,24.0,0.,24.0,0.,24.0
1979-07-21 12:32:55.600 ,2,1,0.,24.0,0.,24.0,0.,24.0,0.,24.0
1979-07-21 12:33:19.600 ,2,0,0.,24.0,0.,24.0,0.,24.0,0.,24.0
1979-07-21 12:33:43.600 ,1,1,0.,24.0,0.,24.0,0.,24.0,0.,24.0
1979-07-21 12:34:07.600 ,1,0,0.,24.0,0.,24.0,0.,24.0,0.,24.0
1979-07-21 12:34:31.600 ,0,1,0.,24.0,0.,24.0,0.,24.0,0.,24.0
1979-07-21 12:34:55.600 ,0,0,0.,24.0,0.,24.0,0.,24.0,0.,24.0
1979-07-21 12:35:19.600 ,0,1,0.,24.0,0.,24.0,0.,24.0,0.,24.0
1979-07-21 12:35:43.600 ,0,0,0.,24.0,0.,24.0,0.,24.0,0.,24.0
1979-07-21 12:36:07.600 ,1,1,0.,24.0,0.,24.0,0.,24.0,0.,24.0
1979-07-21 12:36:31.600 ,1,0,0.,24.0,0.,24.0,0.,24.0,0.,24.0
1979-07-21 12:36:55.600 ,2,1,0.,24.0,0.,24.0,0.,24.0,0.,24.0
1979-07-21 12:37:19.600 ,2,0,0.,24.0,0.,24.0,0.,24.0,0.,24.0
1979-07-21 12:37:43.600 ,3,1,0.,24.0,0.,24.0,0.,24.0,0.,24.0
1979-07-21 12:38:07.600 ,3,0,0.,24.0,0.,24.0,0.,24.0,0.,24.0
1979-07-21 12:38:31.600 ,4,1,0.,24.0,0.,24.0,0.,24.0,0.,24.0
1979-07-21 12:38:55.600 ,4,0,0.,24.0,0.,24.0,0.,24.0,0.,24.0
1979-07-21 12:39:19.600 ,5,1,0.,24.0,0.,24.0,0.,24.0,0.,24.0
1979-07-21 12:39:43.600 ,5,0,0.,24.0,0.,24.0,0.,24.0,0.,24.0
1979-07-21 12:40:07.600 ,6,1,0.,24.0,0.,24.0,0.,24.0,0.,24.0
1979-07-21 12:40:31.600 ,6,0,0.,24.0,0.,24.0,0.,24.0,0.,24.0
1979-07-21 12:40:55.600 ,7,1,0.,24.0,0.,24.0,0.,24.0,0.,24.0
1979-07-21 12:41:19.600 ,7,0,0.,24.0,0.,24.0,0.,24.0,0.,24.0
1979-07-21 12:41:43.600 ,7,1,0.,24.0,0.,24.0,0.,24.0,0.,24.0
1979-07-21 12:42:07.600 ,7,0,0.,24.0,0.,24.0,0.,24.0,0.,24.0
1979-07-21 12:42:31.600 ,6,1,0.,24.0,0.,24.0,0.,24.0,0.,24.0
1979-07-21 12:42:55.600 ,6,0,0.,24.0,0.,24.0,0.,24.0,0.,24.0
1979-07-21 12:43:19.600 ,5,1,0.,24.0,0.,24.0,0.,24.0,0.,24.0
1979-07-21 12:43:43.600 ,5,0,0.,24.0,0.,24.0,0.,24.0,0.,24.0
1979-07-21 12:44:07.600 ,4,1,0.,24.0,0.,24.0,0.,24.0,0.,24.0
1979-07-21 12:44:31.600 ,4,0,0.,24.0,0.,24.0,0.,24.0,0.,24.0
1979-07-21 12:44:55.600 ,3,1,0.,24.0,0.,24.0,0.,24.0,0.,24.0
1979-07-21 12:45:19.600 ,3,0,0.,24.0,0.,24.0,0.,24.0,0.,24.0
1979-07-21 12:45:43.600 ,2,1,0.,24.0,0.,24.0,0.,24.0,0.,24.0
1979-07-21 12:46:07.600 ,2,0,0.,24.0,0.,24.0,0.,24.0,0.,24.0
1979-07-21 12:46:31.600 ,1,1,0.,24.0,0.,24.0,0.,24.0,0.,24.0
1979-07-21 12:46:55.600 ,1,0,0.,24.0,0.,24.0,0.,24.0,0.,24.0
1979-07-21 12:47:19.600 ,0,1,0.,24.0,0.,24.0,0.,24.0,0.,24.0
1979-07-21 12:47:43.600 ,0,0,0.,24.0,0.,24.0,0.,24.0,0.,24.0
1979-07-21 12:48:07.600 ,0,1,0.,24.0,0.,24.0,0.,24.0,0.,24.0
1979-07-21 12:48:31.600 ,0,0,0.,24.0,0.,24.0,0.,24.0,0.,24.0
1979-07-21 12:48:55.600 ,1,1,0.,24.0,0.,24.0,0.,24.0,0.,24.0
1979-07-21 12:49:19.600 ,1,0,0.,24.0,0.,24.0,0.,24.0,0.,24.0
1979-07-21 12:49:43.600 ,2,1,0.,24.0,0.,24.0,0.,24.0,0.,24.0
1979-07-21 12:50:07.600 ,2,0,0.,24.0,0.,24.0,0.,24.0,0.,24.0
1979-07-21 12:50:31.600 ,3,1,0.,24.0,0.,24.0,0.,24.0,0.,24.0
1979-07-21 12:50:55.600 ,3,0,0.,24.0,0.,24.0,0.,24.0,0.,24.0
1979-07-21 12:51:19.600 ,4,1,0.,24.0,0.,24.0,0.,24.0,0.,24.0
1979-07-21 12:51:43.600 ,4,0,0.,24.0,0.,24.0,0.,24.0,0.,24.0
1979-07-21 12:52:07.600 ,5,1,0.,24.0,0.,24.0,0.,24.0,0.,24.0
1979-07-21 12:52:31.600 ,5,0,0.,24.0,0.,24.0,0.,24.0,0.,24.0
1979-07-21 12:52:55.600 ,6,1,1.,24.0,0.,24.0,0.,24.0,0.,24.0
1979-07-21 12:53:19.600 ,6,0,0.,24.0,0.,24.0,0.,24.0,0.,24.0
1979-07-21 12:53:43.600 ,7,1,0.,24.0,0.,24.0,0.,24.0,0.,24.0
1979-07-21 12:54:07.600 ,7,0,0.,24.0,0.,24.0,0.,24.0,0.,24.0
1979-07-21 12:54:31.600 ,7,1,0.,24.0,0.,24.0,0.,24.0,0.,24.0
1979-07-21 12:54:55.600 ,7,0,0.,24.0,0.,24.0,0.,24.0,0.,24.0
1979-07-21 12:55:19.600 ,6,1,0.,24.0,0.,24.0,0.,24.0,0.,24.0
1979-07-21 12:55:43.600 ,6,0,0.,24.0,0.,24.0,0.,24.0,0.,24.0
1979-07-21 12:56:07.600 ,5,1,0.,24.0,0.,24.0,0.,24.0,0.,24.0
1979-07-21 12:56:31.600 ,5,0,0.,24.0,0.,24.0,0.,24.0,0.,24.0
1979-07-21 12:56:55.600 ,4,1,0.,24.0,0.,24.0,0.,24.0,0.,24.0
1979-07-21 12:57:19.600 ,4,0,0.,24.0,0.,24.0,0.,24.0,0.,24.0
1979-07-21 12:57:43.600 ,3,1,0.,24.0,0.,24.0,0.,24.0,0.,24.0
1979-07-21 12:58:07.600 ,3,0,0.,24.0,0.,24.0,0.,24.0,0.,24.0
1979-07-21 12:58:31.600 ,2,1,0.,24.0,0.,24.0,0.,24.0,0.,24.0
1979-07-21 12:58:55.600 ,2,0,0.,24.0,0.,24.0,0.,24.0,0.,24.0
1979-07-21 12:59:19.600 ,1,1,0.,24.0,0.,24.0,0.,24.0,0.,24.0
1979-07-21 12:59:43.600 ,1,0,0.,24.0,0.,24.0,0.,24.0,0.,24.0
1979-07-21 13:00:07.600 ,0,1,0.,24.0,0.,24.0,0.,24.0,0.,24.0
1979-07-21 13:00:31.600 ,0,0,0.,24.0,0.,24.0,0.,24.0,0.,24.0
1979-07-21 13:00:55.600 ,0,1,0.,24.0,0.,24.0,0.,24.0,0.,24.0
1979-07-21 13:01:19.600 ,0,0,0.,24.0,0.,24.0,0.,24.0,0.,24.0
1979-07-21 13:01:43.600 ,1,1,0.,24.0,0.,24.0,0.,24.0,0.,24.0
1979-07-21 13:02:07.600 ,1,0,0.,24.0,0.,24.0,0.,24.0,0.,24.0
1979-07-21 13:02:31.600 ,2,1,0.,24.0,0.,24.0,0.,24.0,0.,24.0
1979-07-21 13:02:55.600 ,2,0,0.,24.0,0.,24.0,0.,24.0,0.,24.0
1979-07-21 13:03:19.600 ,3,1,0.,24.0,0.,24.0,0.,24.0,0.,24.0
1979-07-21 13:03:43.600 ,3,0,0.,24.0,0.,24.0,0.,24.0,0.,24.0
1979-07-21 13:04:07.600 ,4,1,0.,24.0,0.,24.0,0.,24.0,0.,24.0
1979-07-21 13:04:31.600 ,4,0,0.,24.0,0.,24.0,0.,24.0,0.,24.0
1979-07-21 13:04:55.600 ,5,1,0.,24.0,0.,24.0,0.,24.0,0.,24.0
1979-07-21 13:05:19.600 ,5,0,0.,24.0,0.,24.0,0.,24.0,0.,24.0
1979-07-21 13:05:43.600 ,6,1,1.,24.0,0.,24.0,0.,24.0,0.,24.0
1979-07-21 13:06:07.600 ,6,0,0.,24.0,0.,24.0,0.,24.0,0.,24.0
1979-07-21 13:06:31.600 ,7,0,0.,24.0,0.,24.0,0.,24.0,0.,24.0
1979-07-21 13:06:55.600 ,7,0,0.,24.0,0.,24.0,0.,24.0,0.,24.0
1979-07-21 13:07:19.600 ,5,1,0.,24.0,0.,24.0,0.,24.0,0.,24.0
1979-07-21 13:07:43.600 ,1,1,0.,24.0,0.,24.0,0.,24.0,0.,24.0
1979-07-21 13:08:07.600 ,2,1,0.,24.0,0.,24.0,0.,24.0,0.,24.0
1979-07-21 13:08:31.600 ,6,1,0.,24.0,0.,24.0,0.,24.0,0.,24.0
1979-07-21 13:08:55.600 ,5,1,0.,24.0,0.,24.0,0.,24.0,0.,24.0
1979-07-21 13:09:19.600 ,1,1,0.,24.0,0.,24.0,0.,24.0,0.,24.0
1979-07-21 13:09:43.600 ,2,1,0.,24.0,0.,24.0,0.,24.0,0.,24.0
1979-07-21 13:10:07.600 ,6,1,0.,24.0,0.,24.0,0.,24.0,0.,24.0
1979-07-21 13:10:31.600 ,5,1,0.,24.0,0.,24.0,0.,24.0,0.,24.0
1979-07-21 13:10:55.600 ,1,1,0.,24.0,0.,24.0,0.,24.0,0.,24.0
1979-07-21 13:11:19.600 ,2,1,0.,24.0,0.,24.0,0.,24.0,0.,24.0
1979-07-21 13:11:43.600 ,6,1,0.,24.0,0.,24.0,0.,24.0,0.,24.0
1979-07-21 13:12:07.600 ,5,1,0.,24.0,0.,24.0,0.,24.0,0.,24.0
1979-07-21 13:12:31.600 ,1,1,0.,24.0,0.,24.0,0.,24.0,0.,24.0
1979-07-21 13:12:55.600 ,2,1,0.,24.0,0.,24.0,0.,24.0,0.,24.0
1979-07-21 13:13:19.600 ,6,1,0.,24.0,0.,24.0,0.,24.0,0.,24.0
1979-07-21 13:13:43.600 ,5,1,0.,24.0,0.,24.0,0.,24.0,0.,24.0
1979-07-21 13:14:07.600 ,1,1,0.,24.0,0.,24.0,0.,24.0,0.,24.0
1979-07-21 13:14:31.600 ,2,1,0.,24.0,0.,24.0,0.,24.0,0.,24.0
1979-07-21 13:14:55.600 ,6,1,0.,24.0,0.,24.0,0.,24.0,0.,24.0
1979-07-21 13:15:19.600 ,5,1,0.,24.0,0.,24.0,0.,24.0,0.,24.0
1979-07-21 13:15:43.600 ,1,1,0.,24.0,0.,24.0,0.,24.0,0.,24.0
1979-07-21 13:16:07.600 ,2,1,0.,24.0,0.,24.0,0.,24.0,0.,24.0
1979-07-21 13:16:31.600 ,6,1,0.,24.0,0.,24.0,0.,24.0,0.,24.0
1979-07-21 13:16:55.600 ,5,1,0.,24.0,0.,24.0,0.,24.0,0.,24.0
1979-07-21 13:17:19.600 ,1,1,0.,24.0,0.,24.0,0.,24.0,0.,24.0
1979-07-21 13:17:43.600 ,0,0,0.,24.0,0.,24.0,0.,24.0,0.,24.0
1979-07-21 13:18:07.600 ,0,0,0.,24.0,0.,24.0,0.,24.0,0.,24.0
1979-07-21 13:18:46.000 ,0,0,,0,,0,,0,,0
1979-07-21 13:18:55.600 ,0,0,0.,24.0,0.,24.0,0.,24.0,0.,24.0
1979-07-21 13:19:19.600 ,4,1,0.,24.0,0.,24.0,0.,24.0,0.,24.0
1979-07-21 13:19:43.600 ,4,0,0.,24.0,0.,24.0,0.,24.0,0.,24.0
1979-07-21 13:20:07.600 ,3,1,0.,24.0,0.,24.0,0.,24.0,0.,24.0
1979-07-21 13:20:31.600 ,3,0,0.,24.0,0.,24.0,0.,24.0,0.,24.0
1979-07-21 13:20:55.600 ,2,1,0.,24.0,0.,24.0,0.,24.0,0.,24.0
1979-07-21 13:21:19.600 ,2,0,0.,24.0,0.,24.0,0.,24.0,0.,24.0
1979-07-21 13:21:43.600 ,1,1,0.,24.0,0.,24.0,0.,24.0,0.,24.0
1979-07-21 13:22:07.600 ,1,0,0.,24.0,0.,24.0,0.,24.0,0.,24.0
1979-07-21 13:22:31.600 ,0,1,0.,24.0,0.,24.0,0.,24.0,0.,24.0
1979-07-21 13:22:55.600 ,0,0,0.,24.0,0.,24.0,0.,24.0,0.,24.0
1979-07-21 13:23:19.600 ,0,1,0.,24.0,0.,24.0,0.,24.0,0.,24.0
1979-07-21 13:23:43.600 ,0,0,0.,24.0,0.,24.0,0.,24.0,0.,24.0
1979-07-21 13:24:07.600 ,1,1,0.,24.0,0.,24.0,0.,24.0,0.,24.0
1979-07-21 13:24:31.600 ,1,0,0.,24.0,0.,24.0,0.,24.0,0.,24.0
1979-07-21 13:24:55.600 ,2,1,0.,24.0,0.,24.0,0.,24.0,0.,24.0
1979-07-21 13:25:19.600 ,2,0,0.,24.0,0.,24.0,0.,24.0,0.,24.0
1979-07-21 13:25:43.600 ,3,1,0.,24.0,0.,24.0,0.,24.0,0.,24.0
1979-07-21 13:26:07.600 ,3,0,0.,24.0,0.,24.0,0.,24.0,0.,24.0
1979-07-21 13:26:31.600 ,4,1,0.,24.0,0.,24.0,0.,24.0,0.,24.0
1979-07-21 13:26:55.600 ,4,0,0.,24.0,0.,24.0,0.,24.0,0.,24.0
1979-07-21 13:27:19.600 ,5,1,0.,24.0,0.,24.0,0.,24.0,0.,24.0
1979-07-21 13:27:43.600 ,5,0,0.,24.0,0.,24.0,0.,24.0,0.,24.0
1979-07-21 13:28:07.600 ,6,1,0.,24.0,0.,24.0,0.,24.0,0.,24.0
1979-07-21 13:28:31.600 ,6,0,0.,24.0,0.,24.0,0.,24.0,0.,24.0
1979-07-21 13:28:55.600 ,7,1,0.,24.0,0.,24.0,0.,24.0,0.,24.0
1979-07-21 13:29:19.600 ,7,0,0.,24.0,0.,24.0,0.,24.0,0.,24.0
1979-07-21 13:29:43.600 ,7,1,0.,24.0,0.,24.0,0.,24.0,0.,24.0
1979-07-21 13:30:07.600 ,7,0,0.,24.0,0.,24.0,0.,24.0,0.,24.0
1979-07-21 13:30:31.600 ,6,1,0.,24.0,0.,24.0,0.,24.0,0.,24.0
1979-07-21 13:30:55.600 ,6,0,0.,24.0,0.,24.0,0.,24.0,0.,24.0
1979-07-21 13:31:19.600 ,5,1,0.,24.0,0.,24.0,0.,24.0,0.,24.0
1979-07-21 13:31:43.600 ,5,0,0.,24.0,0.,24.0,0.,24.0,0.,24.0
1979-07-21 13:32:07.600 ,4,1,0.,24.0,0.,24.0,0.,24.0,0.,24.0
1979-07-21 13:32:31.600 ,4,0,0.,24.0,0.,24.0,0.,24.0,0.,24.0
1979-07-21 13:32:55.600 ,3,1,0.,24.0,0.,24.0,0.,24.0,0.,24.0
1979-07-21 13:33:19.600 ,3,0,0.,24.0,0.,24.0,0.,24.0,0.,24.0
1979-07-21 13:33:43.600 ,2,1,0.,24.0,0.,24.0,0.,24.0,0.,24.0
1979-07-21 13:34:07.600 ,2,0,0.,24.0,0.,24.0,0.,24.0,0.,24.0
1979-07-21 13:34:31.600 ,1,1,0.,24.0,0.,24.0,0.,24.0,0.,24.0
1979-07-21 13:34:55.600 ,1,0,0.,24.0,0.,24.0,0.,24.0,1.,24.0
1979-07-21 13:35:19.600 ,0,1,1.,24.0,0.,24.0,0.,24.0,0.,24.0
1979-07-21 13:35:43.600 ,0,0,0.,24.0,0.,24.0,0.,24.0,0.,24.0
1979-07-21 13:36:07.600 ,0,1,0.,24.0,0.,24.0,0.,24.0,0.,24.0
1979-07-21 13:36:31.600 ,0,0,0.,24.0,0.,24.0,0.,24.0,0.,24.0
1979-07-21 13:36:55.600 ,1,1,0.,24.0,0.,24.0,0.,24.0,0.,24.0
1979-07-21 13:37:19.600 ,1,0,0.,24.0,0.,24.0,0.,24.0,0.,24.0
1979-07-21 13:37:43.600 ,2,1,0.,24.0,0.,24.0,0.,24.0,0.,24.0
1979-07-21 13:38:07.600 ,2,0,0.,24.0,0.,24.0,0.,24.0,0.,24.0
1979-07-21 13:38:31.600 ,3,1,0.,24.0,0.,24.0,0.,24.0,0.,24.0
1979-07-21 13:38:55.600 ,3,0,0.,24.0,0.,24.0,0.,24.0,0.,24.0
1979-07-21 13:39:19.600 ,4,1,0.,24.0,0.,24.0,0.,24.0,0.,24.0
1979-07-21 13:39:43.600 ,4,0,0.,24.0,0.,24.0,0.,24.0,0.,24.0
1979-07-21 13:40:07.600 ,5,1,0.,24.0,0.,24.0,0.,24.0,0.,24.0
1979-07-21 13:40:31.600 ,5,0,0.,24.0,0.,24.0,0.,24.0,0.,24.0
1979-07-21 13:40:55.600 ,6,1,0.,24.0,0.,24.0,0.,24.0,0.,24.0
1979-07-21 13:41:19.600 ,6,0,0.,24.0,0.,24.0,0.,24.0,0.,24.0
1979-07-21 13:41:43.600 ,7,1,0.,24.0,0.,24.0,0.,24.0,0.,24.0
1979-07-21 13:42:07.600 ,7,0,0.,24.0,0.,24.0,0.,24.0,0.,24.0
1979-07-21 13:42:31.600 ,7,1,0.,24.0,0.,24.0,0.,24.0,0.,24.0
1979-07-21 13:42:55.600 ,7,0,0.,24.0,0.,24.0,0.,24.0,0.,24.0
1979-07-21 13:43:19.600 ,6,1,0.,24.0,0.,24.0,0.,24.0,0.,24.0
1979-07-21 13:43:43.600 ,6,0,0.,24.0,0.,24.0,0.,24.0,0.,24.0
1979-07-21 13:44:07.600 ,5,1,0.,24.0,0.,24.0,0.,24.0,0.,24.0
1979-07-21 13:44:31.600 ,5,0,0.,24.0,0.,24.0,0.,24.0,0.,24.0
1979-07-21 13:44:55.600 ,4,1,0.,24.0,0.,24.0,0.,24.0,0.,24.0
1979-07-21 13:45:19.600 ,4,0,1.,24.0,0.,24.0,0.,24.0,0.,24.0
1979-07-21 13:45:43.600 ,3,1,1.,24.0,0.,24.0,0.,24.0,0.,24.0
1979-07-21 13:46:07.600 ,3,0,0.,24.0,0.,24.0,0.,24.0,0.,24.0
1979-07-21 13:46:31.600 ,2,1,0.,24.0,0.,24.0,0.,24.0,0.,24.0
1979-07-21 13:46:55.600 ,2,0,0.,24.0,0.,24.0,0.,24.0,0.,24.0
1979-07-21 13:47:19.600 ,1,1,0.,24.0,0.,24.0,0.,24.0,0.,24.0
1979-07-21 13:47:43.600 ,1,0,0.,24.0,0.,24.0,0.,24.0,0.,24.0
1979-07-21 13:48:07.600 ,0,1,0.,24.0,0.,24.0,0.,24.0,0.,24.0
1979-07-21 13:48:31.600 ,0,0,0.,24.0,0.,24.0,0.,24.0,0.,24.0
1979-07-21 13:48:55.600 ,0,1,0.,24.0,0.,24.0,0.,24.0,0.,24.0
1979-07-21 13:49:19.600 ,0,0,0.,24.0,0.,24.0,0.,24.0,0.,24.0
1979-07-21 13:49:43.600 ,1,1,0.,24.0,0.,24.0,0.,24.0,0.,24.0
1979-07-21 13:50:07.600 ,1,0,0.,24.0,0.,24.0,0.,24.0,0.,24.0
1979-07-21 13:50:31.600 ,2,1,0.,24.0,0.,24.0,0.,24.0,0.,24.0
1979-07-21 13:50:55.600 ,2,0,0.,24.0,0.,24.0,0.,24.0,0.,24.0
1979-07-21 13:51:19.600 ,3,1,0.,24.0,0.,24.0,0.,24.0,0.,24.0
1979-07-21 13:51:43.600 ,3,0,0.,24.0,0.,24.0,0.,24.0,0.,24.0
1979-07-21 13:52:07.600 ,4,1,0.,24.0,0.,24.0,0.,24.0,0.,24.0
1979-07-21 13:52:31.600 ,4,0,0.,24.0,0.,24.0,0.,24.0,0.,24.0
1979-07-21 13:52:55.600 ,5,1,0.,24.0,0.,24.0,0.,24.0,0.,24.0
1979-07-21 13:53:19.600 ,5,0,0.,24.0,0.,24.0,0.,24.0,0.,24.0
1979-07-21 13:53:43.600 ,6,1,0.,24.0,0.,24.0,0.,24.0,0.,24.0
1979-07-21 13:54:07.600 ,6,0,0.,24.0,0.,24.0,0.,24.0,0.,24.0
1979-07-21 13:54:31.600 ,7,0,0.,24.0,0.,24.0,0.,24.0,0.,24.0
1979-07-21 13:54:55.600 ,7,0,1.,24.0,0.,24.0,0.,24.0,0.,24.0
1979-07-21 13:55:19.600 ,5,1,0.,24.0,0.,24.0,0.,24.0,0.,24.0
1979-07-21 13:55:43.600 ,1,1,0.,24.0,0.,24.0,0.,24.0,0.,24.0
1979-07-21 13:56:07.600 ,2,1,0.,24.0,0.,24.0,0.,24.0,0.,24.0
1979-07-21 13:56:31.600 ,6,1,0.,24.0,0.,24.0,0.,24.0,0.,24.0
1979-07-21 13:56:55.600 ,5,1,0.,24.0,0.,24.0,0.,24.0,0.,24.0
1979-07-21 13:57:19.600 ,0,0,0.,24.0,0.,24.0,0.,24.0,0.,24.0
1979-07-21 13:57:46.000 ,0,0,0.,24.0,0.,24.0,0.,24.0,0.,24.0
1979-07-21 13:58:07.600 ,6,1,0.,24.0,0.,24.0,0.,24.0,0.,24.0
1979-07-21 13:58:31.600 ,5,1,0.,24.0,0.,24.0,0.,24.0,0.,24.0
1979-07-21 13:58:55.600 ,1,1,0.,24.0,0.,24.0,0.,24.0,0.,24.0
1979-07-21 13:59:19.600 ,2,1,0.,24.0,0.,24.0,0.,24.0,0.,24.0
1979-07-21 13:59:43.600 ,6,1,0.,24.0,0.,24.0,0.,24.0,0.,24.0
1979-07-21 14:00:07.600 ,5,1,0.,24.0,0.,24.0,0.,24.0,0.,24.0
1979-07-21 14:00:31.600 ,1,1,0.,24.0,0.,24.0,0.,24.0,0.,24.0
1979-07-21 14:00:55.600 ,2,1,0.,24.0,0.,24.0,0.,24.0,0.,24.0
1979-07-21 14:01:19.600 ,6,1,0.,24.0,0.,24.0,0.,24.0,0.,24.0
1979-07-21 14:01:43.600 ,5,1,0.,24.0,0.,24.0,0.,24.0,0.,24.0
1979-07-21 14:02:07.600 ,1,1,0.,24.0,0.,24.0,0.,24.0,0.,24.0
1979-07-21 14:02:31.600 ,2,1,0.,24.0,0.,24.0,0.,24.0,0.,24.0
1979-07-21 14:02:55.600 ,6,1,0.,24.0,0.,24.0,0.,24.0,0.,24.0
1979-07-21 14:03:19.600 ,5,1,0.,24.0,0.,24.0,0.,24.0,0.,24.0
1979-07-21 14:03:43.600 ,1,1,0.,24.0,0.,24.0,0.,24.0,0.,24.0
1979-07-21 14:04:07.600 ,2,1,0.,24.0,0.,24.0,0.,24.0,0.,24.0
1979-07-21 14:04:31.600 ,6,1,0.,24.0,0.,24.0,0.,24.0,0.,24.0
1979-07-21 14:04:55.600 ,5,1,0.,24.0,0.,24.0,0.,24.0,0.,24.0
1979-07-21 14:05:19.600 ,1,1,0.,24.0,0.,24.0,0.,24.0,0.,24.0
1979-07-21 14:05:43.600 ,0,0,0.,24.0,0.,24.0,0.,24.0,0.,24.0
1979-07-21 14:06:07.600 ,0,0,1.,24.0,0.,24.0,0.,24.0,0.,24.0
1979-07-21 14:06:31.600 ,5,1,0.,24.0,0.,24.0,0.,24.0,0.,24.0
1979-07-21 14:06:55.600 ,5,0,0.,24.0,0.,24.0,0.,24.0,0.,24.0
1979-07-21 14:07:19.600 ,4,1,0.,24.0,0.,24.0,0.,24.0,0.,24.0
1979-07-21 14:07:43.600 ,4,0,0.,24.0,0.,24.0,0.,24.0,0.,24.0
1979-07-21 14:08:07.600 ,3,1,0.,24.0,0.,24.0,0.,24.0,0.,24.0
1979-07-21 14:08:31.600 ,3,0,0.,24.0,0.,24.0,0.,24.0,0.,24.0
1979-07-21 14:08:55.600 ,2,1,0.,24.0,0.,24.0,0.,24.0,0.,24.0
1979-07-21 14:09:19.600 ,2,0,0.,24.0,0.,24.0,0.,24.0,0.,24.0
1979-07-21 14:09:43.600 ,1,1,0.,24.0,0.,24.0,0.,24.0,0.,24.0
1979-07-21 14:10:07.600 ,1,0,0.,24.0,0.,24.0,0.,24.0,0.,24.0
1979-07-21 14:10:31.600 ,0,1,0.,24.0,0.,24.0,0.,24.0,0.,24.0
1979-07-21 14:10:55.600 ,0,0,0.,24.0,0.,24.0,0.,24.0,0.,24.0
1979-07-21 14:11:19.600 ,0,1,0.,24.0,0.,24.0,0.,24.0,0.,24.0
1979-07-21 14:11:43.600 ,0,0,0.,24.0,0.,24.0,0.,24.0,0.,24.0
1979-07-21 14:12:07.600 ,1,1,0.,24.0,0.,24.0,0.,24.0,0.,24.0
1979-07-21 14:12:31.600 ,1,0,0.,24.0,0.,24.0,0.,24.0,0.,24.0
1979-07-21 14:12:55.600 ,2,1,0.,24.0,0.,24.0,0.,24.0,0.,24.0
1979-07-21 14:13:19.600 ,2,0,0.,24.0,0.,24.0,0.,24.0,0.,24.0
1979-07-21 14:13:43.600 ,3,1,0.,24.0,0.,24.0,0.,24.0,0.,24.0
1979-07-21 14:14:07.600 ,3,0,0.,24.0,0.,24.0,0.,24.0,0.,24.0
1979-07-21 14:14:31.600 ,4,1,0.,24.0,0.,24.0,0.,24.0,0.,24.0
1979-07-21 14:14:55.600 ,4,0,0.,24.0,0.,24.0,0.,24.0,0.,24.0
1979-07-21 14:15:19.600 ,5,1,0.,24.0,0.,24.0,0.,24.0,0.,24.0
1979-07-21 14:15:43.600 ,5,0,0.,24.0,0.,24.0,0.,24.0,0.,24.0
1979-07-21 14:16:07.600 ,6,1,0.,24.0,0.,24.0,0.,24.0,0.,24.0
1979-07-21 14:16:31.600 ,6,0,0.,24.0,0.,24.0,0.,24.0,0.,24.0
1979-07-21 14:16:55.600 ,7,1,0.,24.0,0.,24.0,0.,24.0,0.,24.0
1979-07-21 14:17:19.590 ,7,0,0.,24.0,0.,24.0,0.,24.0,0.,24.0
1979-07-21 14:17:43.590 ,7,1,0.,24.0,0.,24.0,0.,24.0,0.,24.0
1979-07-21 14:18:07.590 ,7,0,0.,24.0,0.,24.0,0.,24.0,0.,24.0
1979-07-21 14:18:31.590 ,6,1,0.,24.0,0.,24.0,0.,24.0,0.,24.0
1979-07-21 14:18:55.590 ,6,0,0.,24.0,0.,24.0,0.,24.0,0.,24.0
1979-07-21 14:19:19.590 ,5,1,0.,24.0,0.,24.0,0.,24.0,0.,24.0
1979-07-21 14:19:43.590 ,5,0,0.,24.0,0.,24.0,0.,24.0,0.,24.0
1979-07-21 14:20:07.590 ,4,1,0.,24.0,0.,24.0,0.,24.0,0.,24.0
1979-07-21 14:20:31.590 ,4,0,0.,24.0,0.,24.0,0.,24.0,0.,24.0
1979-07-21 14:20:55.590 ,3,1,0.,24.0,0.,24.0,0.,24.0,0.,24.0
1979-07-21 14:21:19.590 ,3,0,0.,24.0,0.,24.0,0.,24.0,0.,24.0
1979-07-21 14:21:43.590 ,2,1,0.,24.0,0.,24.0,0.,24.0,0.,24.0
1979-07-21 14:22:07.590 ,2,0,0.,24.0,0.,24.0,0.,24.0,0.,24.0
1979-07-21 14:22:31.590 ,1,1,0.,24.0,0.,24.0,0.,24.0,0.,24.0
1979-07-21 14:22:55.590 ,1,0,0.,24.0,0.,24.0,0.,24.0,0.,24.0
1979-07-21 14:23:19.590 ,0,1,0.,24.0,0.,24.0,0.,24.0,0.,24.0
1979-07-21 14:23:43.590 ,0,0,0.,24.0,0.,24.0,0.,24.0,0.,24.0
1979-07-21 14:24:07.590 ,0,1,0.,24.0,0.,24.0,0.,24.0,0.,24.0
1979-07-21 14:24:31.590 ,0,0,0.,24.0,0.,24.0,0.,24.0,0.,24.0
1979-07-21 14:24:55.590 ,1,1,0.,24.0,0.,24.0,0.,24.0,0.,24.0
1979-07-21 14:25:19.590 ,1,0,0.,24.0,0.,24.0,0.,24.0,0.,24.0
1979-07-21 14:25:43.590 ,2,1,0.,24.0,0.,24.0,0.,24.0,0.,24.0
1979-07-21 14:26:07.590 ,2,0,0.,24.0,0.,24.0,0.,24.0,0.,24.0
1979-07-21 14:26:31.590 ,3,1,0.,24.0,0.,24.0,0.,24.0,0.,24.0
1979-07-21 14:26:55.590 ,3,0,0.,24.0,0.,24.0,0.,24.0,0.,24.0
1979-07-21 14:27:19.590 ,4,1,0.,24.0,0.,24.0,0.,24.0,0.,24.0
1979-07-21 14:27:43.590 ,4,0,0.,24.0,0.,24.0,0.,24.0,0.,24.0
1979-07-21 14:28:07.590 ,5,1,0.,24.0,0.,24.0,0.,24.0,0.,24.0
1979-07-21 14:28:31.590 ,5,0,0.,24.0,0.,24.0,0.,24.0,0.,24.0
1979-07-21 14:28:55.590 ,6,1,0.,24.0,0.,24.0,0.,24.0,0.,24.0
1979-07-21 14:29:19.590 ,6,0,0.,24.0,0.,24.0,0.,24.0,0.,24.0
1979-07-21 14:29:43.590 ,7,1,0.,24.0,0.,24.0,0.,24.0,0.,24.0
1979-07-21 14:30:07.590 ,7,0,0.,24.0,0.,24.0,0.,24.0,0.,24.0
1979-07-21 14:30:31.590 ,7,1,0.,24.0,0.,24.0,0.,24.0,0.,24.0
1979-07-21 14:30:55.590 ,7,0,0.,24.0,0.,24.0,0.,24.0,0.,24.0
1979-07-21 14:31:19.590 ,6,1,0.,24.0,0.,24.0,0.,24.0,0.,24.0
1979-07-21 14:31:43.590 ,6,0,0.,24.0,0.,24.0,0.,24.0,0.,24.0
1979-07-21 14:32:07.590 ,5,1,0.,24.0,0.,24.0,0.,24.0,0.,24.0
1979-07-21 14:32:31.590 ,5,0,0.,24.0,0.,24.0,0.,24.0,0.,24.0
1979-07-21 14:32:55.590 ,4,1,0.,24.0,0.,24.0,0.,24.0,0.,24.0
1979-07-21 14:33:19.590 ,4,0,0.,24.0,0.,24.0,0.,24.0,0.,24.0
1979-07-21 14:33:43.590 ,3,1,0.,24.0,0.,24.0,0.,24.0,0.,24.0
1979-07-21 14:34:07.590 ,3,0,0.,24.0,0.,24.0,0.,24.0,0.,24.0
1979-07-21 14:34:31.590 ,2,1,1.,24.0,0.,24.0,0.,24.0,0.,24.0